Terminal Aerodrome Forecast
Issued by NWS Grand Forks, ND

Home | Current Version | Previous Version | Text Only | Print | Product List | Glossary Off
Versions: 1 2 3 4 5 6 7 8 9 10 11 12 13 14 15 16 17 18 19

000
FTUS43 KFGF 292001 AAB
TAFGFK
TAF AMD
KGFK 292001Z 2920/3018 35019G27KT P6SM SCT028
     FM300100 35014KT P6SM FEW035
     FM300300 35008KT P6SM SKC
     FM301500 03009KT P6SM SKC=

USA.gov is the U.S. government's official web portal to all federal, state and local government web resources and services.